Weather History for PAHO - May, 2014

Change the Weather History Date:

Wednesday, May 7, 2014

  Actual Average Record
Temperature  
Mean Temperature 48 °F -  
Max Temperature 55 °F 48 °F 65 °F (1981)
Min Temperature 43 °F 35 °F 26 °F (1943)
Degree Days  
Heating Degree Days 16    
Moisture  
Dew Point 38 °F    
Average Humidity 70    
Maximum Humidity 77    
Minimum Humidity 61    
Precipitation  
Precipitation 0.00 in - - ()
Sea Level Pressure  
Sea Level Pressure 29.78 in    
Wind  
Wind Speed 3 mph (SW)    
Max Wind Speed 10 mph    
Max Gust Speed -    
Visibility 10 miles    
Events Rain    
Averages and records for this station are not official NWS values.
T = Trace of Precipitation, MM = Missing Value Source: NWS Daily Summary

Daily Weather History Graph

Daily Weather History Graph

Search for Another Location

Airport or City:

Trip Planner

Search our weather history database for the weather conditions in past years. The results will help you decide how hot, cold, wet, or windy it might be!

Date:

Astronomy

May. 07, 2014 Rise Set
Actual Time 5:49 AM AKDT 10:17 PM AKDT
Civil Twilight 4:53 AM AKDT 11:13 PM AKDT
Nautical Twilight 3:17 AM AKDT 12:54 AM AKDT
Astronomical Twilight Sun does not set Sun does not set
Moon 1:50 PM AKDT 3:39 AM AKDT
Length of Visible Light 18h 20m
Length of Day
16h 27m
First Quarter, 57% of the Moon is Illuminated
May 7
First Quarter
May 14
Full
May 21
Last Quarter
May 28
New
Jun 5
First Quarter

Hourly Weather History & Observations

Time (AKDT) Temp. Windchill Dew Point Humidity Pressure Visibility Wind Dir Wind Speed Gust Speed Precip Events Conditions
12:53 AM 46.9 °F - 36.0 °F 66% 29.77 in 10.0 mi Calm Calm - N/A   Overcast
1:53 AM 48.0 °F - 35.1 °F 61% 29.77 in 10.0 mi Calm Calm - N/A   Overcast
2:53 AM 48.0 °F - 36.0 °F 63% 29.77 in 10.0 mi Calm Calm - N/A   Overcast
3:53 AM 44.1 °F 41.5 °F 34.0 °F 68% 29.76 in 10.0 mi NE 4.6 mph - N/A   Clear
4:53 AM 43.0 °F - 34.0 °F 71% 29.77 in 10.0 mi Calm Calm - N/A   Overcast
5:53 AM 43.0 °F - 35.1 °F 74% 29.78 in 10.0 mi Calm Calm - N/A   Overcast
6:53 AM 44.1 °F 42.5 °F 35.1 °F 71% 29.78 in 10.0 mi North 3.5 mph - N/A   Overcast
7:53 AM 45.0 °F - 37.0 °F 74% 29.79 in 10.0 mi Calm Calm - N/A   Overcast
8:53 AM 48.0 °F - 39.0 °F 71% 29.80 in 10.0 mi Calm Calm - N/A   Overcast
9:53 AM 48.9 °F - 39.0 °F 69% 29.80 in 10.0 mi SSW 4.6 mph - N/A   Overcast
10:53 AM 48.0 °F - 39.0 °F 71% 29.80 in - SW 4.6 mph - N/A   Overcast
11:53 AM 48.9 °F - 37.9 °F 66% 29.80 in 10.0 mi SW 4.6 mph - N/A   Overcast
12:53 PM 48.9 °F - 39.0 °F 69% 29.80 in 10.0 mi SW 5.8 mph - N/A   Overcast
1:53 PM 50.0 °F - 41.0 °F 71% 29.80 in 10.0 mi SW 5.8 mph - 0.00 in   Overcast
2:53 PM 50.0 °F - 41.0 °F 71% 29.79 in 10.0 mi SW 6.9 mph - N/A   Overcast
3:53 PM 51.1 °F - 42.1 °F 71% 29.78 in 10.0 mi SSW 8.1 mph - N/A   Overcast
4:53 PM 52.0 °F - 41.0 °F 66% 29.78 in 10.0 mi South 6.9 mph - N/A   Overcast
5:53 PM 54.0 °F - 41.0 °F 62% 29.78 in 10.0 mi North 8.1 mph - N/A   Overcast
6:53 PM 48.9 °F - 39.9 °F 71% 29.78 in 10.0 mi WSW 9.2 mph - 0.00 in Rain Light Rain
7:53 PM 46.9 °F - 39.9 °F 77% 29.78 in 10.0 mi WSW 10.4 mph - 0.00 in   Overcast
8:53 PM 46.9 °F - 39.9 °F 77% 29.78 in 10.0 mi West 10.4 mph - N/A   Mostly Cloudy
9:53 PM 46.9 °F - 37.9 °F 71% 29.78 in 10.0 mi West 10.4 mph - N/A   Overcast
11:53 PM 46.0 °F 43.9 °F 37.0 °F 71% 29.78 in 10.0 mi WSW 4.6 mph - N/A   Mostly Cloudy